JO-97
1 43803U 18099AX  24348.10956026  .00013697  00000-0  75224-3 0  9994
2 43803  97.4970  43.3323 0009471  52.4366 307.7724 15.14201372329708
Suomi 100
1 43804U 18099AY  24347.95756382  .00011356  00000-0  65026-3 0  9999
2 43804  97.5040  42.8564 0014984  51.8079 308.4499 15.12691655329643
ISAT
1 43879U 18111D   24348.60118498  .00019441  00000-0  91240-3 0  9999
2 43879  97.6072 254.3181 0013617  95.8344 264.4443 15.19605962326573
UWE-4
1 43880U 18111E   24348.49156988  .00016734  00000-0  83402-3 0  9997
2 43880  97.6002 253.6626 0016470 106.3581 253.9464 15.17509044326540
Sparrow
1 43881U 18111F   24348.50039747  .00019449  00000-0  89364-3 0  9992
2 43881  97.6189 256.5193 0010059 126.9146 233.3011 15.20375085326630
Prox-1
1 44339U 19036A   24348.60352239  .00014974  00000-0  22059-2 0  9998
2 44339  23.9966 145.5347 0006790 207.0704 152.9438 14.73684171291670
SONATE
1 44400U 19038Q   24348.75945921  .00047125  00000-0  82560-3 0  9999
2 44400  97.7118 352.8057 0011694 167.8963 192.2570 15.50377725301730
Taurus 1
1 44530U 19059C   24348.78407291  .00010386  00000-0  21205-2 0  9999
2 44530  98.5893 114.5871 0010738 222.4580 137.5789 14.61064220277933
Duchifat 3
1 44854U 19089C   24348.53509538  .00030384  00000-0  10648-2 0  9990
2 44854  36.9515  31.4315 0011305 165.7174 194.3898 15.28562588275538
TO-108
1 44881U 19093C   24348.70405704  .00001958  00000-0  23633-3 0  9998
2 44881  97.8135  61.9921 0015420  94.8194 265.4781 14.84827039269674
FloripaSat 1
1 44885U 19093G   24348.72212797  .00008694  00000-0  80413-3 0  9995
2 44885  97.8313  70.3470 0012579  81.8351 278.4296 14.94731576270142
RS-44
1 44909U 19096E   24348.45881154  .00000029  00000-0  74414-4 0  9993
2 44909  82.5215 345.6481 0217341 352.3793   7.4021 12.79736850231909
UPMSat 2
1 46276U 20061E   24348.44518754  .00030635  00000-0  61127-3 0  9990
2 46276  97.2745  53.7682 0001123 151.6207 208.5104 15.46799894237757
AmicalSat
1 46287U 20061R   24348.67179854  .00281117  00000-0  15746-2 0  9999
2 46287  97.3164  59.3726 0003028 275.2761  84.8160 15.78544376237384
SALSAT
1 46495U 20068K   24347.89116096  .00009157  00000-0  45067-3 0  9991
2 46495  97.8394 312.5187 0014858  63.9393 296.3367 15.18140470231379
CubeSX-Sirius-HSE
1 47951U 21022V   24348.78595266  .00050355  00000-0  11409-2 0  9997
2 47951  97.4408 248.3173 0007386 200.6440 159.4510 15.42915274206089
CubeSX-HSE
1 47952U 21022W   24348.78023992  .00050825  00000-0  11381-2 0  9991
2 47952  97.4402 248.4602 0007427 199.3015 160.7953 15.43263917206098
KSU-Cubesat
1 47954U 21022Y   24348.69354513  .00082874  00000-0  13283-2 0  9991
2 47954  97.4413 251.1123 0006320 173.2831 186.8507 15.52782172205978
GRBAlpha
1 47959U 21022AD  24348.80337588  .00048999  00000-0  10984-2 0  9997
2 47959  97.4404 248.6515 0007335 199.1664 160.9309 15.43241234204923
Orbicraft-Zorkiy
1 47960U 21022AE  24348.80210225  .00066198  00000-0  12118-2 0  9999
2 47960  97.4439 250.9407 0006099 185.2578 174.8609 15.49095882205734
TUBIN
1 48900U 21059X   24348.73783442  .00031489  00000-0  72773-3 0  9991
2 48900  97.6611 140.3109 0005299 167.3080 192.8301 15.42440925192474
LEDSAT
1 49069U 21073D   24348.66575461  .00032108  00000-0  84989-3 0  9997
2 49069  97.4168  59.8625 0014531   8.5400 351.6089 15.38209493183908
CUTE
1 49263U 21088D   24348.55831931  .00038715  00000-0  11522-2 0  9996
2 49263  97.4760  54.7694 0011166 164.8106 195.3474 15.34554225176996
TeikyoSat 4
1 49396U 21102B   24348.66819761  .00004053  00000-0  28004-3 0  9991
2 49396  97.4367  27.4136 0013540  28.7838 331.4134 15.06213620169754
Z-Sat
1 49399U 21102E   24348.73377170  .00006639  00000-0  39181-3 0  9995
2 49399  97.4081  29.6198 0019190   4.6690 355.4716 15.11706169170089
KOSEN 1
1 49402U 21102H   24348.07628930  .00009269  00000-0  48202-3 0  9996
2 49402  97.4003  31.2193 0016835 347.1503  12.9298 15.16153549170200
HO-113
1 50466U 21131B   24348.74719566  .00001201  00000-0  39275-3 0  9998
2 50466  98.5211  72.9844 0003323 319.7724  40.3218 14.40344143155846
IRIS-A
1 51044U 22002BN  24348.44854171  .00045174  00000-0  85151-3 0  9999
2 51044  97.3611  55.8913 0004769 109.5508 250.6258 15.48357771161989
Foresail-1
1 52766U 22057AL  24348.60467139  .00049536  00000-0  92612-3 0  9999
2 52766  97.5968 120.4300 0007253 212.7078 147.3723 15.48556831142040
SNUGLITE 2
1 52899U 22065F   24348.64014512  .00002216  00000-0  44891-3 0  9992
2 52899  98.1423 126.7577 0006772 317.1462  42.9211 14.62220930130476
IO-117
1 53106U 22080B   24346.40082951 -.00000003  00000-0  00000+0 0  9998
2 53106  70.1337 130.9545 0008301  67.0662 293.0873  6.42557702 56656
FO-118
1 54684U 22167C   24348.74558839  .00105700  00000-0  14338-2 0  9999
2 54684  97.6132 140.8976 0007400 237.5770 122.4769 15.57261624111940
SSS-2B
1 56184U 23054G   24348.52247795  .00718847  23077-3  16077-2 0  9990
2 56184  97.3317 252.0738 0007126 117.7886 242.4114 15.97780878 94042
SO-120
1 56992U 23084BU  24348.62757945  .00141725  00000-0  17363-2 0  9996
2 56992  97.5360 113.2306 0003057 100.3633 259.7968 15.59877580 83798
MRC-100
1 56993U 23084BV  24347.82740584  .00344208  00000-0  20040-2 0  9996
2 56993  97.5298 114.3284 0002516 312.2566  47.8486 15.77502466 83805
UmKA 1 (RS40S)
1 57172U 23091G   24348.78344553  .00007865  00000-0  46396-3 0  9994
2 57172  97.5877  39.2498 0014560 223.6578 136.3501 15.11737466 80582
CubeBel-2 (EU11S)
1 57175U 23091K   24348.77568275  .00011890  00000-0  65844-3 0  9997
2 57175  97.5879  39.5556 0012629 235.1087 124.8958 15.13911369 80601
VERONIKA
1 58261U 23174F   24348.75013754  .00041516  00000-0  11546-2 0  9998
2 58261  97.4415  63.3791 0008559 328.5904  31.4828 15.36691669 61129
KAFASAT
1 58317U 23174BP  24348.56191666  .00079673  00000-0  15633-2 0  9994
2 58317  97.4339  65.1621 0007503 296.5721  63.4759 15.47027215 61240
ENSO
1 58470U 23185J   24348.76065670  .00030458  00000-0  86733-3 0  9991
2 58470  97.4036  54.7669 0009758   7.0500 353.0880 15.36008335 57578
EIRSAT-1
1 58472U 23185L   24348.77953888  .00036473  00000-0  95844-3 0  9997
2 58472  97.4030  55.1625 0009008   5.8699 354.2650 15.38473137 57604
SONATE-2
1 59112U 24043Q   24348.57044946  .00017221  00000-0  65472-3 0  9991
2 59112  97.4951 111.6342 0013161  29.0245 331.1723 15.26772323 43091
MO-122
1 60209U 24125G   24348.81108909  .00019461  00000-0  73284-3 0  9996
2 60209  97.2978 197.3091 0024530  53.3745 306.9745 15.26853695 24743
GRBBeta
1 60237U 24128C   24348.57357512  .00006554  00000-0  53780-3 0  9997
2 60237  61.9938 338.9350 0031280  13.2222 346.9680 14.99783823 23479
Curium One
1 60242U 24128H   24348.00128526  .00010302  00000-0  82193-3 0  9998
2 60242  61.9842 340.9701 0031388   5.2424 354.8987 15.00404646 23391
ROBUSTA-3A
1 60243U 24128J   24348.42592256  .00009413  00000-0  75877-3 0  9992
2 60243  61.9908 339.8190 0029578   3.1702 356.9570 15.00129497 23454
CatSat
1 60246U 24125J   24347.82104925  .00014393  00000-0  56601-3 0  9994
2 60246  97.2783 197.0899 0048481  10.8736 349.3538 15.24650651 22698
CySat-1
1 61501U 98067WZ  24347.83140246  .00277490  00000-0  16094-2 0  9992
2 61501  51.6273 144.6583 0013286 282.0173  77.9338 15.77073640 10269
AO-123
1 61781U 24199AY  24348.72531597  .00010941  00000-0  45377-3 0  9992
2 61781  97.3797 212.9079 0019108 103.8396 256.4969 15.23876438 49759
